{"data":{"norad_id":66477,"epoch":"2026-09-20T07:30:16.778016Z","epoch_age_seconds":105458,"freshness":"FRESH","line1":"1 66477U 25262X   26263.31269419  .00009903  00000+0  36880-3 0  9999","line2":"2 66477  43.0010 276.8502 0001444 270.4619  89.6067 15.27588637 48675","mean_motion":15.27588637,"eccentricity":0.0001444,"inclination_deg":43.001,"raan_deg":276.8502,"arg_perigee_deg":270.4619,"mean_anomaly_deg":89.6067,"bstar":0.0003688,"rev_number":4867,"period_min":94.2662157286,"perigee_km":482.03248233859,"apogee_km":484.01398541413,"semimajor_km":6861.1602338764,"source":"CELESTRAK","updated_at":"2026-09-21T09:00:35.916781Z"}}